Flag for Colombia Weather past 2 weeks in Villavicencio, Colombia

Now
64 °F

Scattered showers. Partly sunny.


Feels Like: 64 °F
Forecast: 62 / 88 °F
Wind: 14 mph from Southeast

Location: Bogota / Eldorado

Current Time: Jul 30, 2014 at 1:16:50 PM

Latest Report: Jul 30, 2014 at 12:00 PM


Visibility: N/A

Pressure: 30.41 "Hg

Humidity: 56%

Dew point: 48 °F

Location of VillavicencioLocation

Historic Weather in Villavicencio — Graph

°F

Villavicencio temperature yesterday

Maximum temperature yesterday: 63 °F (at 10:00 AM)
Minimum temperature yesterday: 46 °F (at 3:00 AM)
Average temperature yesterday: 56 °F

Past Weeks' High & Low Weather Summary

 TemperatureHumidityPressure
High70 °F (Jul 26, 1:00 PM)94% (Jul 19, 1:00 AM)30.45 "Hg (Jul 19, 1:00 AM)
Low46 °F (Jul 29, 3:00 AM)35% (Jul 25, 3:00 PM)30.24 "Hg (Jul 25, 5:00 PM)
Average57 °F70%30.36 "Hg
* Reported Jul 15 12:00 Noon — Jul 30 12:00 Noon, Villavicencio, Weather by CustomWeather, © 2014

Note: Actual official high and low records may vary slightly from our data, if they occured in-between our weather recording intervals... More about our weather records

Advertising

Villavicencio weather history for previous 24 hours

 ConditionsComfort  
Time TempWeatherWind HumidityBarometerVisibility
12:00 PM
Jul 30
64 °FScattered showers. Partly sunny.14 mph56%30.41 "HgN/A
11:00 AM63 °FScattered showers. Scattered clouds.15 mph56%30.42 "HgN/A
10:00 AM61 °FScattered showers. Scattered clouds.13 mph59%30.43 "HgN/A
9:00 AM59 °FScattered showers. Scattered clouds.9 mph68%30.43 "HgN/A
8:00 AM55 °FScattered showers. Partly sunny.2 mph77%30.42 "HgN/A
7:00 AM52 °FScattered showers. Scattered clouds.6 mph88%30.40 "HgN/A
6:00 AM48 °FScattered showers. Scattered clouds.5 mph94%30.38 "HgN/A
5:00 AM48 °FScattered showers. Passing clouds.2 mph94%30.39 "HgN/A
4:00 AM50 °FPassing clouds.6 mph94%30.39 "HgN/A
3:00 AM50 °FPassing clouds.3 mph88%30.39 "HgN/A
2:00 AM50 °FPassing clouds.9 mph94%30.40 "HgN/A
1:00 AM52 °FPassing clouds.3 mph88%30.43 "HgN/A
12:00 AM54 °FScattered showers. Passing clouds.7 mph77%30.44 "HgN/A
11:00 PM
Jul 29
54 °FScattered showers. Passing clouds.7 mph77%30.44 "HgN/A
10:00 PM54 °FPassing clouds.3 mph72%30.43 "HgN/A
9:00 PM57 °FPassing clouds.8 mph63%30.42 "HgN/A
8:00 PM57 °FPassing clouds.9 mph63%30.40 "HgN/A
7:00 PM57 °FPassing clouds.8 mph63%30.37 "HgN/A
6:00 PM59 °FScattered showers. Partly sunny.12 mph59%30.35 "HgN/A
5:00 PM61 °FScattered showers. Partly sunny.10 mph55%30.34 "HgN/A
4:00 PM61 °FScattered showers. Partly sunny.12 mph55%30.33 "HgN/A
3:00 PM63 °FScattered showers. Partly sunny.21 mph52%30.34 "HgN/A
2:00 PM61 °FPartly sunny.17 mph52%30.35 "HgN/A
1:00 PM63 °FPartly sunny.15 mph49%30.37 "HgN/A
Weather by CustomWeather, © 2014

See weather overviewHow to use our weather pages